This demonstration page uses our WeatherBlox Daily Observations layout. Learn more.

Left ArrowRight Arrow

39.08367, -84.50855

Hourly Observations for April 12, 2021

Temp ( °F °C ) Dew Point ( °F °C ) Humidity (%) Winds ( mph kmh ) Pressure ( in mb ) Visibility ( mi km ) Precip ( " mm )
12:12 am 00:12 Cloudy 50 10 46 7.8 86 86 WSW 6 9 29.63 1003 10 16.0934 0 0
12:53 am 00:53 Cloudy 50 10 46 7.8 86 86 WSW 9 15 29.62 1003 10 16.0934 0 0
1:53 am 01:53 Cloudy 50 10 46 7.8 86 86 WSW 10 17 29.63 1003 10 16.0934 0 0
2:53 am 02:53 Cloudy 50 10 46 7.8 86 86 WSW 8 13 29.63 1003 10 16.0934 0 0
3:00 am 03:00 Cloudy 50 10 46 7.8 86 86 W 7 11 29.65 1004 10 16.0934 0 0
3:40 am 03:40 Cloudy 51 10.6 45 7.2 80 80 W 10 17 29.65 1004 10 16.0934 0 0
3:53 am 03:53 Cloudy 51 10.6 45 7.2 80 80 W 10 17 29.65 1004 10 16.0934 0 0
4:53 am 04:53 Cloudy 51 10.6 46 7.8 83 83 Calm 29.65 1004 10 16.0934 0 0
5:53 am 05:53 Cloudy 51 10.6 46 7.8 83 83 W 7 11 29.68 1005 10 16.0934 0 0
6:02 am 06:02 Cloudy 51 10.6 46 7.8 83 83 W 7 11 29.69 1005 10 16.0934 0 0
6:53 am 06:53 Cloudy 50 10 47 8.3 89 89 SW 6 9 29.7 1006 10 16.0934 0 0
7:53 am 07:53 Cloudy 51 10.6 48 8.9 89 89 SW 8 13 29.72 1007 10 16.0934 0 0
8:23 am 08:23 Cloudy 51 10.6 48 8.9 89 89 SW 8 13 29.74 1007 10 16.0934 0 0
8:53 am 08:53 Cloudy 52 11.1 48 8.9 86 86 WSW 8 13 29.74 1007 10 16.0934 0 0
9:53 am 09:53 Cloudy 53 11.7 48 8.9 83 83 WSW 9 15 29.76 1008 10 16.0934 0 0
10:53 am 10:53 Cloudy 54 12.2 49 9.4 83 83 WSW 12 19 29.78 1009 10 16.0934 0 0
11:53 am 11:53 Cloudy 55 12.8 49 9.4 80 80 WSW 9 15 29.79 1009 10 16.0934 0 0
12:53 pm 12:53 Cloudy 57 13.9 48 8.9 72 72 W 14 22 29.82 1010 10 16.0934 0 0
1:53 pm 13:53 Cloudy 60 15.6 48 8.9 65 65 W 14 22 29.82 1010 10 16.0934 0 0
2:53 pm 14:53 Mostly Cloudy 62 16.7 49 9.4 62 62 WSW 14 22 29.83 1010 10 16.0934 0 0
3:53 pm 15:53 Partly Cloudy 63 17.2 46 7.8 54 54 W 15 24 29.85 1011 10 16.0934 0 0
4:53 pm 16:53 Mostly Cloudy 65 18.3 44 6.7 47 47 WNW 12 19 29.85 1011 10 16.0934 0 0
5:53 pm 17:53 Partly Cloudy 65 18.3 43 6.1 45 45 WNW 10 17 29.86 1011 10 16.0934 0 0
6:53 pm 18:53 Partly Cloudy 67 19.4 43 6.1 42 42 NW 8 13 29.88 1012 10 16.0934 0 0
7:53 pm 19:53 Mostly Cloudy 65 18.3 42 5.6 43 43 NNW 3 6 29.9 1013 10 16.0934 0 0
8:53 pm 20:53 Clear 58 14.4 43 6.1 58 58 Calm 29.93 1013 10 16.0934 0 0
9:53 pm 21:53 Clear 51 10.6 46 7.8 83 83 Calm 29.96 1015 10 16.0934 0 0
10:53 pm 22:53 Clear 49 9.4 46 7.8 90 90 Calm 29.98 1015 10 16.0934 0 0
11:53 pm 23:53 Clear 48 8.9 45 7.2 89 89 Calm 30 1016 10 16.0934 0 0

Powered by AerisWeather